Torna al catalogo

STARLINK-4098

AttivoComunicazioniVLEO
NORAD 53153·PAYLOAD·🇺🇸 United States

Lanciato Jul 17, 2022 da Cape Canaveral Space Force Station

Loading…

Prossimi Passaggi (prossime 24 ore)

TLE

AggiornatoSource: CelesTrak SupGP

Epoca: Sep 15, 2026, 02:31 UTC

1 53153C 22083X   26258.10534722 -.00009461  00000+0 -27960-3 0  2585
2 53153  53.1597  28.6577 0001180  82.3226  49.7431 15.34386535    19

Traccia STARLINK-4098 in tempo reale con AllMySat

Download on the App Store